Location: Cosy Dell
(34.2789°N, 117.4537°W)
Time: 20:05:20
(UTC+00:00)

Cosmos 1825 - Pass Details

Date: 14 July 2020
Orbit: 502 x 509 km, 82.5° (Epoch: 13 August)

Event Time Altitude Azimuth Distance (km) Brightness Sun altitude
Exits shadow 05:00:42 18° 58° (ENE) 1,308 4.1 -20.3°
Drops below altitude 10° 05:02:13 10° 38° (NE) 1,730 5.0 -20.5°
Sets 05:04:40 0° 23° (NNE) 2,620 6.1 -20.9°
